Location: Acequia del Cap
(41.7000°N, 0.6167°E)
Time: 01:15:33
(UTC+00:00)

OPS 8737 - Pass Details

Date: 07 August 2020
Orbit: 357 x 1724 km, 63.3° (Epoch: 21 June)

Event Time Altitude Azimuth Distance (km) Brightness Sun altitude
Exits shadow 02:57:00 60° 266° (W) 548 4.5 -19.5°
Maximum altitude 02:57:23 66° 306° (NW) 512 4.5 -19.4°
Drops below altitude 10° 03:00:30 10° 29° (NNE) 1,464 8.1 -19.0°
Sets 03:02:21 0° 33° (NNE) 2,254 9.5 -18.8°
